Weather History for Goodland, KS

Change the Weather History Date:

Wednesday, December 28, 2011

  Actual Average Record
Temperature  
Mean Temperature 40 °F 29 °F  
Max Temperature 56 °F 42 °F 67 °F (2002)
Min Temperature 24 °F 17 °F -10 °F (1924)
Degree Days  
Heating Degree Days 25 36  
Month to date heating degree days 1023 984  
Since 1 July heating degree days 2232 2303  
Cooling Degree Days 0 0  
Month to date cooling degree days 0 0  
Year to date cooling degree days 1116 941  
Moisture  
Dew Point 21 °F    
Average Humidity 52    
Maximum Humidity 81    
Minimum Humidity 22    
Precipitation  
Precipitation 0.00 in 0.01 in 0.56 in (1979)
Month to date precipitation 0.41 0.42  
Year to date precipitation 19.33 19.62  
Snow  
Snow 0.00 in 0.20 in - ()
Month to date snowfall 7.8 5.0  
Since 1 July snowfall 11.4 12.2  
Snow Depth 0.00 in    
Sea Level Pressure  
Sea Level Pressure 30.03 in    
Wind  
Wind Speed 10 mph (West)    
Max Wind Speed 20 mph    
Max Gust Speed 23 mph    
Visibility 10 miles    
Events      
T = Trace of Precipitation, MM = Missing Value Source: NWS Daily Summary

Daily Weather History Graph

Daily Weather History Graph

Search for Another Location

Airport:

Trip Planner

Search our weather history database for the weather conditions in past years. The results will help you decide how hot, cold, wet, or windy it might be!

Date:

Astronomy

Dec. 28, 2011 Rise Set
Actual Time 7:05 AM MST 4:30 PM MST
Civil Twilight 6:35 AM MST 5:00 PM MST
Nautical Twilight 6:01 AM MST 5:34 PM MST
Astronomical Twilight 5:29 AM MST 6:07 PM MST
Moon 9:34 AM MST (12/28) 9:07 PM MST (12/28)
Length of Visible Light 10h 25m
Length of Day
9h 24m
Waxing Crescent, 18% of the Moon is Illuminated
Dec 28
Waxing Crescent
Dec 31
First Quarter
Jan 9
Full
Jan 16
Last Quarter
Jan 23
New

Hourly Weather History & Observations

Time (MST) Temp. Windchill Dew Point Humidity Pressure Visibility Wind Dir Wind Speed Gust Speed Precip Events Conditions
12:53 AM 28.0 °F 19.3 °F 19.9 °F 72% 30.06 in 10.0 mi NW 9.2 mph - N/A   Clear
1:53 AM 28.0 °F 19.3 °F 19.9 °F 72% 30.05 in 10.0 mi WNW 9.2 mph - N/A   Clear
2:53 AM 26.1 °F 16.8 °F 19.0 °F 75% 30.07 in 10.0 mi NW 9.2 mph - N/A   Clear
3:53 AM 27.0 °F 19.5 °F 19.0 °F 72% 30.08 in 10.0 mi WNW 6.9 mph - N/A   Clear
4:53 AM 26.1 °F 17.6 °F 19.0 °F 75% 30.11 in 10.0 mi West 8.1 mph - N/A   Clear
5:53 AM 24.1 °F 15.2 °F 18.0 °F 77% 30.12 in 10.0 mi West 8.1 mph - N/A   Clear
6:53 AM 25.0 °F 14.8 °F 19.0 °F 78% 30.12 in 10.0 mi West 10.4 mph - N/A   Clear
7:53 AM 28.0 °F 19.3 °F 19.0 °F 69% 30.12 in 10.0 mi West 9.2 mph - N/A   Clear
8:53 AM 37.0 °F 30.4 °F 23.0 °F 57% 30.11 in 10.0 mi West 9.2 mph - N/A   Clear
9:53 AM 45.0 °F 40.1 °F 23.0 °F 42% 30.08 in 10.0 mi West 9.2 mph - N/A   Clear
10:53 AM 46.0 °F 43.1 °F 21.9 °F 39% 30.05 in 10.0 mi West 5.8 mph - N/A   Clear
11:53 AM 54.0 °F - 17.1 °F 23% 29.99 in 10.0 mi West 8.1 mph - N/A   Clear
12:53 PM 55.0 °F - 17.1 °F 23% 29.95 in 10.0 mi SW 13.8 mph - N/A   Clear
1:53 PM 54.0 °F - 19.9 °F 26% 29.94 in 10.0 mi SW 15.0 mph - N/A   Clear
2:53 PM 52.0 °F - 19.9 °F 28% 29.96 in 10.0 mi WSW 11.5 mph 21.9 mph N/A   Clear
3:53 PM 45.0 °F 39.7 °F 21.9 °F 40% 29.98 in 10.0 mi SW 10.4 mph - N/A   Clear
4:53 PM 42.1 °F 35.2 °F 21.9 °F 45% 29.99 in 10.0 mi SW 12.7 mph - N/A   Clear
5:53 PM 39.0 °F 31.0 °F 21.9 °F 50% 30.00 in 10.0 mi WSW 13.8 mph - N/A   Clear
6:53 PM 37.0 °F 28.5 °F 23.0 °F 57% 30.00 in 10.0 mi West 13.8 mph - N/A   Clear
7:53 PM 36.0 °F 28.5 °F 24.1 °F 62% 30.00 in 10.0 mi WSW 10.4 mph - N/A   Clear
8:53 PM 34.0 °F 25.5 °F 24.1 °F 67% 29.98 in 10.0 mi WSW 11.5 mph - N/A   Clear
9:53 PM 36.0 °F 30.3 °F 25.0 °F 64% 29.96 in 10.0 mi West 6.9 mph - N/A   Clear
10:53 PM 34.0 °F 25.5 °F 25.0 °F 70% 29.97 in 10.0 mi West 11.5 mph - N/A   Clear
11:53 PM 36.0 °F 28.0 °F 25.0 °F 64% 29.94 in 10.0 mi West 11.5 mph - N/A   Clear